カタログに戻る

SL-12 R/B

AUX MOTOR

運用中HEO
NORAD 7400·ROCKET BODY·🇷🇺 Russia

打ち上げ Jul 29, 1974 から Baikonur Cosmodrome

Loading…

次のパス (今後24時間)

TLE

最新Source: Space-Track

元期: Sep 14, 2026, 12:52 UTC

1 07400U 74060E   26257.53635769 -.00000091  00000-0  00000-0 0  9995
2 07400  44.8389 113.7560 6403148  60.2357 348.3199  2.54706108113433

AllMySatでSL-12 R/Bをリアルタイム追跡

Download on the App Store